Location: Arroyo Grande
(40.2671°N, 4.2512°W)
Time: 05:32:18
(UTC+00:00)

Cosmos 1536 Rocket - Pass Details

Date: 03 February 2023
Orbit: 604 x 630 km, 82.5° (Epoch: 25 March)

Event Time Altitude Azimuth Distance (km) Brightness Sun altitude
Rises 18:15:00 0° 196° (SSW) 2,843 7.4 -7.6°
Reaches altitude 10° 18:17:14 10° 200° (SSW) 1,945 6.6 -8.0°
Maximum altitude 18:21:28 57° 280° (W) 717 4.3 -8.8°
Drops below altitude 10° 18:25:45 10° 359° (N) 1,966 6.0 -9.6°
Sets 18:28:01 0° 4° (N) 2,878 6.8 -10.0°
